BEIDOU-3 G1 (PRN 130)

Last updated on Sat Sep 05 2026 00:03:32 GMT+0000 (Coordinated Universal Time)

1 43683U 18085A 26247.76005481 -.00000117 00000+0 00000+0 0 9996 2 43683 2.5881 95.1299 0006139 20.5017 301.9320 1.00271850 28854
UTC large
Height (km)
Speed (km/s)
/
Latitude / Longitude
Inclination (degrees)
Orbital Period (minutes)
Azimuth
Elevation
Range (km)
Doppler Factor

Next 0 passes for location: London (51.5072 / 0.1276)

No passes found over London.
BEIDOU-3 G1 (PRN 130)